San Francisco, CA

1:09 AM PDT on July 26, 2016 (GMT -0700)
San Francisco International | | Change Station

Elev 16 ft 37.62 °N, 122.37 °W | Updated 13 minutes ago

Partly Cloudy
Partly Cloudy
56 °F
Feels Like 56 °F
N
10
Wind Variable Wind from West

Today
High -- | Low -- °F
--% Chance of Precip.
Yesterday
High -- | Low -- °F
Precip. -- in
Pressure 29.91 in
Visibility 10.0 miles
Clouds Few 400 ft
Dew Point 51 °F
Humidity 84%
Rainfall 0.00 in
Snow Depth Not available.
6:08 AM 8:22 PM
Waning Gibbous, 57% visible
METAR KSFO 260756Z 28009KT 10SM FEW004 13/11 A2991 RMK AO2 SLP126 T01330106 402220122
Pressure 29.91 in
Visibility 10.0 miles
Clouds Few 400 ft
Dew Point 51 °F
Humidity 84%
Rainfall 0.00 in
Snow Depth Not available.
6:08 AM 8:22 PM
Waning Gibbous, 57% visible
METAR KSFO 260756Z 28009KT 10SM FEW004 13/11 A2991 RMK AO2 SLP126 T01330106 402220122

10-Day Weather Forecast

Almanac

Astronomy

Jul. 26, 2016 Rise Set
Actual Time
Civil Twilight
Nautical Twilight
Astronomical Twilight
Moon
Length of Visible Light
Length of Day
Tomorrow will be .
, % of the Moon is Illuminated

Today's Extremes

State Highs State Lows

Community

WunderPhotos

Upload Photos

1,927,551 photos uploaded!

WunderBlog® & News

Nearby

Air Quality

  Air Quality AQ Index Pollutant
Not available.

Snow Depth

Station Depth Elevation

Earthquake Activity

City Distance Mag. Time & Date
Minimum magnitude displayed is 2.5.

Coastal Water Temperatures

Place Temperature

Stations

Nearby Weather Stations

Station Location Temp. Windchill Dew Point Humidity Wind Precip. Elev Updated Type
                   

Watches & Warnings

There are currently no watches in effect.